www.pogodaiklimat.ru

Погода и климат >> Архив погоды >> Россия >> Красноярский край >> Казыр


ПОГОДА в Казыре

  • Прогноз погоды в Казыре
  • Монитор погоды в Казыре

АРХИВ ПОГОДЫ в Казыре

Время (UTC), дата Ветер
(напр.,м/с)
 
Видим.   Явления Облачность Т
(С)
Тd
(С)
f
(%)
Тe
(С)
Тes
(С)
Комфортность P
(гПа)
Po
(гПа)
Тmin
(С)
Tmax
(С)
R
(мм)
R24
(мм)
S
(см)
18 14.05 штиль 0 н/о ясно -2.8 -3.4 96 -4 -4 1013.4 958.4
21 14.05 Ю 1 н/о ясно -2.3 -2.6 98 -5 -5 1012.6 957.6
00 15.05 Ю 1 50 км 9/9 600 м
[Cb cap]
-1.7 -2.3 96 -4 -4 1010.1 955.4 -3.5
03 15.05 ЮЗ 2 50 км 8/3 1000 м
[Cu med, cong Ci fib]
+5.2 -2.6 57 +3 +10 1006.5 953.3
06 15.05 Ю 2 50 км 8/5 600 м
[Cu med, cong Ci fib]
+7.5 -8.0 32 +6 +13 1005.1 952.4
09 15.05 СЗ 2 50 км 8/6 600 м
[Cb cap Ci fib]
+9.5 -6.5 32 +9 +12 1005.5 953.1
12 15.05 С 1 50 км 8/4 600 м
[Cb cap Ci fib]
+8.3 -3.5 43 +8 +9 1007.9 955.2 +10.6
15 15.05 штиль 0 н/о 8/8 600 м
[Cb cap]
+2.6 -1.6 74 +2 +2 1012.1 958.1
18 15.05 штиль 0 н/о 8/8 600 м
[Cb cap]
-1.4 -3.3 87 -3 -3 1015.0 960.1
21 15.05 штиль 0 н/о 6/0
[Ac trans]
-1.1 -2.6 90 -2 -2 1016.3 961.3
00 16.05 штиль 0 50 км 8/0
[Ac trans]
-0.7 -2.2 90 -2 -0 1010.2 965.1 -2.1
03 16.05 З 2 50 км 8/8 600 м
[Cb cap]
+6.8 -1.5 55 +5 +7 1017.0 963.5
06 16.05 ЮЗ 2 50 км 9/8 600 м
[Cb cap Ci fib]
+6.9 -3.1 49 +5 +8 1017.0 963.5
09 16.05 ЮЗ 1 50 км {гроза, ливн. осадки} 9/9 600 м
[Cb cap]
+4.5 +1.7 82 +3 +4 1019.3 965.3
12 16.05 штиль 0 50 км {гроза, ливн. осадки} 9/3 600 м
[Cb cap Ac trans Ci fib]
+4.3 +2.0 85 +3 +4 1019.8 965.8 +8.7 2
15 16.05 З 1 н/о слаб. ливневой дождь 10/10 600 м
[Cb cap]
+2.2 +1.4 94 0 0 1023.1 968.5
18 16.05 штиль 0 н/о {ливн. осадки} 10/10 600 м
[Cb cap]
+1.2 +0.9 98 -0 -0 1022.2 967.4
21 16.05 штиль 0 н/о 10/10 600 м
[Cb cap]
+0.8 +0.5 98 -1 -1 1022.3 967.3
00 17.05 штиль 0 500 м туман ?/? +1.2 +1.2 100 -0 -0 1023.0 968.2 +0.4 0.8
03 17.05 штиль 0 50 км в посл. час туман 8/8 600 м
[Cb cap]
+5.0 +0.6 73 +4 +7 1022.2 968.2
06 17.05 СЗ 1 10 км слаб. ливневой дождь {туман} 10/10 600 м
[Cb cap]
+6.7 +1.2 68 +6 +6 1021.2 967.4
09 17.05 З 2 50 км 8/3 600 м
[Cb cap Ac trans]
+9.1 -3.0 42 +8 +12 1020.6 967.4
12 17.05 СЗ 1 50 км 8/3 1000 м
[Cu med, cong Ac trans]
+10.5 -4.2 35 +11 +11 1020.6 967.6 +11.7 0.0
15 17.05 СВ 1 н/о 4/4 600 м
[Cb cap]
+1.8 -1.9 76 0 0 1024.1 969.2
18 17.05 штиль 0 н/о ясно -2.0 -3.3 91 -3 -3 1026.0 970.3
21 17.05 штиль 0 н/о ясно -3.3 -3.6 98 -5 -5 1027.0 971.0
00 18.05 штиль 0 50 км ясно -2.2 -2.8 96 -4 -0 1028.1 972.3 -3.8
03 18.05 Ю 1 50 км 9/4 1000 м
[Cu med, cong Ci fib]
+9.3 -3.5 40 +9 +16 1024.5 971.1
06 18.05 С 1 50 км 8/5 1000 м
[Cu hum Ci fib]
+13.0 -7.0 24 +14 +22 1022.1 969.4
09 18.05 ЮЗ 1 50 км 9/4 1000 м
[Cu hum Ci]
+15.5 -7.9 19 +16 +22 1019.2 967.2
12 18.05 З 1 50 км 9/0
[Ac trans Ci]
+14.5 -10.0 17 +15 +16 1018.4 966.3 +16.0
15 18.05 штиль 0 н/о 8/0
[Ac trans Ci sp]
+5.8 -2.2 56 +5 +5 1019.6 965.8
18 18.05 штиль 0 н/о 8/0
[Ac trans Ci sp]
+2.1 -2.5 72 +1 +1 1019.0 964.7
21 18.05 штиль 0 н/о 9/3 600 м
[Cb cap Ac und Ci sp]
-0.2 -3.6 78 -1 -1 1019.4 964.5
00 19.05 ЮВ 2 50 км 9/0
[Ci fib]
+5.4 -5.0 47 +4 +5 1018.3 964.6 -0.3
03 19.05 ЮВ 1 50 км 8/0
[Ci fib]
+14.9 -5.2 25 +16 +27 1015.2 963.2
06 19.05 Ю 2 50 км 9/0
[Ci fib]
+20.6 -8.2 14 +21 +33 комфорт 1012.4 961.6
09 19.05 ЮЗ 2 50 км 9/0
[Ci fib]
+24.0 -8.0 11 +22 +29 комфорт 1008.2 958.1
12 19.05 ЮЗ 2 50 км 8/0
[Ci fib]
+23.8 -6.8 12 +22 +23 комфорт 1007.7 957.6 +25.3
15 19.05 штиль 0 н/о 6/0
[Ci fib]
+10.6 +2.5 57 +10 +10 1010.6 958.2
18 19.05 штиль 0 н/о 6/0
[Ac trans Ci fib]
+6.0 0.0 65 +5 +5 1012.3 959.0
21 19.05 ЮВ 2 н/о 4/0
[Ac trans Ci fib]
+9.0 -1.7 47 +8 +8 1011.5 958.9
00 20.05 ЮВ 2 50 км 8/0
[Ac trans Ci fib]
+8.8 -2.0 47 +8 +9 1011.5 958.7 +6.0
03 20.05 ЮЗ 1 50 км 9/0
[Ac trans Ci fib]
+15.3 -1.1 32 +16 +23 1009.6 958.1
06 20.05 З 2 50 км 10/0
[Ac As]
+21.4 +1.9 27 +21 +26 комфорт 1008.5 958.1
09 20.05 СЗ 1 50 км 10/0
[Ac As]
+21.9 +2.8 28 +22 +25 комфорт 1008.2 957.9
12 20.05 ЮЗ 1 50 км 6/3 1000 м
[Cu med, cong Ac trans]
+20.7 +3.3 32 +22 +23 комфорт 1008.0 957.6 +23.5
15 20.05 штиль 0 н/о 9/8 600 м
[Cb cap Ac trans]
+11.4 +6.6 72 +11 +11 1010.1 958.0
18 20.05 штиль 0 н/о ясно +8.7 +6.1 84 +8 +8 1010.2 957.6
21 20.05 ЮВ 1 н/о 9/0
[Ac und]
+9.7 +3.8 67 +9 +9 1007.4 955.1
00 21.05 ЮВ 1 50 км 10/0
[Ac As]
+10.3 +4.0 65 +10 +11 1003.9 951.8 +7.4
03 21.05 Ю 1 50 км 10/0
[Ac As]
+13.9 +4.9 55 +14 +18 1002.1 950.8
06 21.05 З 1 50 км 9/3 1000 м
[Sc Ac und]
+20.1 +5.9 39 +22 +27 комфорт 1001.5 951.2
09 21.05 С 1 50 км 9/4 1000 м
[Sc Ac und]
+20.2 +8.8 48 +23 +25 комфорт 999.6 949.4
12 21.05 ЮВ 1 10 км слаб. дождь 10/0
[As op]
+12.9 +12.3 96 +13 +13 1004.3 952.7 +22.1 6
15 21.05 штиль 0 н/о слаб. дождь 10/0
[As op]
+11.0 +10.6 97 +10 +10 1006.1 954.1

 

Местоположение метеостанции Казыр (Красноярский край, Россия): широта 53.68 долгота 94.17 высота над уровнем моря 446 м.

В архиве по умолчанию представлена погода в Казыре за последнюю неделю. Архивные данные за месяц целиком и за предыдущие месяцы, начиная с января 2011 года, Вы можете получить, выбрав интересующий диапазон дат из раскрывающегося списка и нажав кнопку "Ввод!".


*Определитесь, кто Вы:
робот инопланетянин человек

Внимание! Время в таблицах - всемирное. Для получения местного времени необходимо прибавить поправку, которая равна 7 ч.

Смотрите также архив погоды в соседних городах и на ближайших метеорологических станциях:

Погода в Каратузском (Красноярский край, Россия) (87 км)
Погода в Курагино (Красноярский край, Россия) (101 км)
Погода в Щетинкино (Красноярский край, Россия) (106 км)
Погода в Артемовске (Красноярский край, Россия) (107 км)
Погода в Оленьей Речке (Красноярский край, Россия) (116 км)
Погода в Ермаковском (Красноярский край, Россия) (123 км)
Погода в Теси (Красноярский край, Россия) (131 км)
Погода в Идринском (Красноярский край, Россия) (154 км)
Погода в Минусинске (Красноярский край, Россия) (163 км)
Погода в Анастасино (Красноярский край, Россия) (168 км)

Пояснения к столбцам:

Ветер - указаны скорость ветра в м/с - средняя за 10 мин, порывы в срок и между сроками (в фигурных скобках) и направление, откуда дует ветер: С - северный, СВ - северо-восточный, В - восточный, ЮВ - юго-восточный, Ю - южный, ЮЗ - юго-западный, З - западный, СЗ - северо-западный.
Видимость - горизонтальная дальность видимости в метрах или километрах. При видимости от 1 до 10 км при отсутствии осадков обычно наблюдается дымка, при ухудшении видимости до 1 км и менее - туман. В сухую погоду видимость может ухудшаться дымом, пылью или мглою.
Явления - указаны атмосферные явления, наблюдавшиеся в срок или в последний час перед сроком; фигурными скобками обозначены явления, наблюдавшиеся между сроками (за 1-3 часа до срока); квадратными скобками обозначены град или гололедные отложения с указанием их диаметра в мм.
Облачность - указаны через наклонную черту общая и нижняя облачность в баллах и высота нижней границы облаков в метрах; квадратными скобками обозначены формы облаков: Ci - перистые, Cs - перисто-слоистые, Cc - перисто-кучевые, Ac - высококучевые, As - высокослоистые, Sc - слоисто-кучевые, Ns - слоисто-дождевые, Cu - кучевые, Cb - кучево-дождевые. Подробнее классификацию облаков см. в Атласе облаков (PDF).
T - Температура воздуха - температура, измеренная на высоте 2 м над землей.
Td - Температура точки росы - температура, при понижении до которой содержащийся в воздухе водяной пар достигнет насыщения.
f - Относительная влажность воздуха - влажноcть воздуха, измеренная на высоте 2 м над землей.
Te - Эффективная температура - температура, которую ощущает одетый по сезону человек в тени. Характеристика душности погоды. При расчете учитывается влияние влажности воздуха и скорости ветра на теплоощущения человека.
Tes - Эффективная температура на солнце - температура, которую ощущает человек, с поправкой на солнечный нагрев. Характеристика знойности погоды. Зависит от высоты солнца над горизонтом, облачности и скорости ветра. Ночью, в пасмурную погоду, а также при ветре 12 м/с и более поправка равна нулю.
P - Атмосферное давление - приведенное к уровню моря атмосферное давление.
Po - Атмосферное давление - измеренное на уровне метеостанции атмосферное давление.
Tmin - Минимальная температура - минимум температуры воздуха на высоте 2 м над землей.
Tmax - Максимальная температура - максимум температуры воздуха на высоте 2 м над землей.
R - Количество осадков - Количество выпавших осадков за период времени, мм. При наведении курсора мыши на число - период времени, за который выпало указанное количество осадков.
R24 - Количество осадков - Количество выпавших осадков за 24 часа, мм.
S - Снежный покров - Высота снежного покрова, см. При наведении курсора мыши на число - состояние снежного покрова и степень покрытия местности в баллах.